Location: Carnoy
(49.9849°N, 2.7558°E)
Time: 23:53:18
(UTC+00:00)

Cosmos 2219 - Pass Details

Date: 24 January 2020
Orbit: 832 x 861 km, 71.1° (Epoch: 28 February)

Event Time Altitude Azimuth Distance (km) Brightness Sun altitude
Rises 17:29:20 0° 200° (SSW) 3,366 6.9 -9.7°
Reaches altitude 10° 17:31:45 10° 199° (SSW) 2,438 6.1 -10.1°
Maximum altitude 17:37:19 74° 116° (ESE) 873 3.2 -10.9°
Drops below altitude 10° 17:42:57 10° 32° (NNE) 2,468 5.2 -11.8°
Enters shadow 17:43:51 - 31° (NNE) 2,808 5.5 -11.9°
